Location: North Evanston
(42.0634°N, 87.6976°W)
Time: 05:11:17
(UTC+00:00)

Explorer 11/Cluster Stage 4 - Pass Details

Date: 17 May 2026
Orbit: 463 x 1173 km, 28.8° (Epoch: 7 June)

Event Time Altitude Azimuth Distance (km) Brightness Sun altitude
Rises 03:46:25 0° 235° (SW) 3,962 10.1 -22.6°
Reaches altitude 10° 03:49:57 10° 222° (SW) 2,927 9.3 -22.9°
Enters shadow 03:51:36 15° 212° (SSW) 2,514 8.9 -23.1°
